sat.trackr.live / text

‹ back to catalog

STARLINK-3748

NORAD 52267 · 2022-041G

PAYLOAD ACTIVE UNKNOWN

§ Identity

Operator
Country
US
Launch date
2022-04-21
Launch site
AFETR
Launch vehicle
Mass (kg)
RCS (m²)

Purposes: comms

External: N2YO · Heavens-Above · Gunter

§ Orbital elements

Epoch: 2026-05-25T04:54:27.883296Z

Period
95.44 min
Inclination
53.2123°
Eccentricity
0.0001016
Mean motion
15.08847043 rev/d
Perigee alt
539.0 km
Apogee alt
540.4 km
Semi-major
6,917.9 km
B*
6.4652e-5
RAAN
125.6377°
Arg perigee
68.2643°
Mean anomaly
291.8458°
Rev number
22,591

§ Raw data

STARLINK-37481 52267U 22041G   26145.20448939  .00000741  00000+0  64652-4 0  99962 52267  53.2123 125.6377 0001016  68.2643 291.8458 15.08847043225914

JSON: /api/v1/satellites/52267 · /tle

For live sub-satellite position, see the globe view (requires WebGL).

§ Visibility from observer

Set your observer location to see the next 7 days of passes ≥ 10°. The values pass through the URL so the page stays shareable.

No JS? Fill the form by hand. The geolocation button needs JavaScript.